Temp
52 53 54 54 54 54 54 54 55 56 56 56 56 56 56 56 56 57 57 57 58 58 59 60 60 60 61 61 61 61 61 61 61 61 60 60 60 59 59 59 59 59 59 59 59 59 59 59 59 59 59 59 59 59 59 59 59 58 58 58 58 57 57 56 56 56 56 58 58
52 53 54 55 55 54 54 54 55 55 56 56 56 57 57 57 57 58 58 59 59 60 60 60 61 61 61 61 61 61 61 61 61 61 60 60 60 59 59 59 59 59 59 59 59 59 59 59 58 58 58 58 58 58 58 58 58 58 58 58 57 57 57 56 56 56 56 57 57
51 52 53 55 56 55 55 54 55 55 56 56 57 58 58 58 58 59 59 59 59 60 60 60 60 60 60 60 60 60 60 60 60 60 60 60 60 60 60 59 59 59 59 59 59 59 59 58 58 58 58 58 57 57 57 57 58 58 57 57 57 57 56 56 56 55 55 55 56
51 51 52 53 55 57 58 59 59 58 58 59 59 59 59 59 59 59 59 59 59 59 59 60 60 60 60 60 60 60 60 60 60 60 60 60 60 60 60 60 59 59 59 59 59 59 59 58 58 58 57 57 57 57 56 56 57 57 57 57 57 56 56 56 55 55 55 55 55
50 51 51 52 53 55 57 58 59 59 59 59 59 59 59 58 58 58 58 58 58 58 59 59 59 59 59 59 59 59 59 59 60 60 60 60 60 60 60 60 59 59 59 59 59 59 58 58 58 57 57 57 57 56 56 56 56 56 56 56 56 56 56 56 55 55 55 55 55
50 50 51 52 53 54 55 57 58 59 59 59 59 58 58 58 58 58 58 57 58 58 58 58 58 58 58 58 58 58 59 59 59 59 59 59 59 59 59 59 59 59 59 59 59 58 58 58 57 57 57 56 56 56 56 56 56 55 55 55 55 56 56 55 55 55 54 54 54
49 50 51 51 52 53 54 55 56 58 59 59 59 58 58 58 58 58 57 57 57 58 58 58 58 58 58 58 58 58 58 58 58 58 59 58 59 59 59 59 59 59 59 59 58 58 58 58 57 57 56 56 56 56 56 56 55 55 55 55 55 55 55 55 55 54 54 54 54
49 50 50 51 51 52 53 54 55 56 57 58 58 58 58 58 58 58 58 57 57 57 57 58 57 57 57 57 57 57 57 58 58 58 58 58 58 58 58 58 58 58 58 58 58 58 57 57 57 56 56 56 55 55 55 55 55 55 54 54 54 55 55 55 54 54 54 53 54
48 49 50 50 51 52 52 53 54 54 55 56 57 58 58 58 58 58 57 57 57 57 57 57 57 57 57 57 57 57 57 57 57 57 57 57 57 57 57 57 58 58 58 58 57 57 57 57 56 56 56 56 55 55 55 55 55 54 54 54 54 54 54 54 54 53 53 53 54
47 48 49 50 50 51 52 52 53 53 53 54 55 57 58 58 58 58 58 57 57 57 57 57 57 57 57 57 57 57 57 57 57 57 57 57 57 57 57 57 57 57 57 57 57 57 57 56 56 55 55 55 55 55 55 54 54 54 54 54 53 53 53 53 53 53 53 53 54
47 48 48 49 50 51 51 51 52 52 53 53 54 55 57 58 58 58 58 58 58 57 57 57 57 57 57 57 56 56 56 56 56 56 56 56 56 56 56 56 56 56 56 56 56 56 56 56 55 55 55 55 55 54 54 54 54 54 53 53 53 53 53 52 53 53 53 53 53
46 47 48 49 49 50 50 51 51 51 52 52 53 54 55 57 58 58 58 58 58 57 57 58 57 57 57 57 56 56 56 56 56 56 56 56 56 56 56 56 56 56 56 56 56 56 56 55 55 55 54 54 54 54 54 54 53 53 53 53 53 52 52 52 53 53 53 53 53
45 46 47 48 49 49 50 50 50 51 51 51 52 52 53 54 56 57 58 58 58 58 58 58 58 58 57 57 57 56 56 56 56 56 56 56 56 55 55 55 55 55 55 55 56 56 55 55 55 54 54 54 54 54 54 54 53 53 53 52 52 52 52 53 53 53 53 52 52
45 45 46 47 48 49 49 49 49 50 50 50 51 52 52 53 54 56 57 58 58 58 58 58 58 58 58 57 57 56 56 56 56 56 56 55 55 55 55 55 55 55 55 55 55 55 55 55 55 54 54 54 54 54 54 54 53 53 53 52 52 52 52 52 53 52 52 52 52
43 44 45 46 47 48 48 48 49 49 49 50 50 51 52 52 53 54 55 56 58 58 58 58 58 58 58 58 57 57 56 56 56 56 55 55 55 55 55 55 55 55 55 55 55 55 55 55 54 54 54 53 53 53 53 54 53 53 53 53 53 53 53 53 53 53 52 52 52
42 43 44 45 46 47 47 48 48 48 49 49 50 50 51 51 52 52 53 54 56 58 58 58 58 58 58 58 57 57 56 56 56 56 55 55 55 55 55 55 55 55 55 55 55 55 55 54 54 54 54 53 53 53 53 53 53 53 53 53 53 53 53 53 53 53 53 53 52
40 41 42 44 45 46 46 47 47 48 48 49 49 50 50 51 51 52 52 52 54 56 57 58 58 58 58 57 57 57 56 56 56 56 55 55 55 55 55 55 55 55 55 55 54 54 54 54 54 54 53 53 53 53 53 53 53 53 53 53 53 53 53 53 53 53 53 53 53
40 40 41 42 43 44 45 46 47 47 48 48 49 49 50 50 50 51 51 52 52 53 55 57 58 58 57 57 57 57 56 56 56 56 55 55 55 55 55 55 55 55 55 55 55 54 54 54 54 54 53 53 53 53 53 53 52 52 52 52 52 53 53 53 53 53 53 53 53
39 39 40 41 42 43 44 46 46 47 47 48 48 49 49 50 50 50 50 51 51 52 53 54 56 57 57 57 57 57 56 56 56 56 55 55 55 55 55 55 55 55 55 55 55 55 54 54 54 54 53 53 53 53 52 52 52 52 52 52 52 52 53 53 53 53 54 54 54
38 39 39 40 41 42 43 44 45 46 47 47 48 48 49 49 49 49 50 50 51 51 52 52 53 55 56 57 57 57 56 56 56 56 55 55 55 55 55 55 55 55 55 55 55 55 55 54 54 54 54 53 53 53 52 52 52 52 52 52 52 52 52 53 53 53 54 54 55
38 38 39 40 40 41 42 43 44 45 46 47 47 48 48 48 49 49 49 50 50 51 51 51 52 52 53 55 56 57 57 57 56 56 56 55 55 55 55 55 55 55 55 55 55 55 55 54 54 54 54 54 53 53 53 52 52 52 52 52 52 52 53 53 53 54 54 54 55
38 38 39 39 40 41 42 43 44 44 45 46 46 47 48 48 48 48 49 49 50 50 50 51 51 51 52 52 54 55 57 57 56 56 56 56 55 55 55 55 55 55 55 55 55 55 55 55 54 54 54 54 53 53 53 53 53 53 53 53 53 53 53 53 53 54 55 55 55
37 38 38 39 40 41 42 42 43 43 44 45 46 46 47 47 48 48 49 49 49 50 50 50 51 51 51 51 52 53 55 56 57 56 56 56 56 56 56 55 55 55 55 55 55 55 55 55 54 54 54 54 53 53 54 53 53 53 53 53 53 53 53 53 54 54 55 56 56
37 37 38 39 39 40 41 41 42 42 43 44 45 46 46 47 47 48 48 48 49 49 49 50 50 51 51 51 52 52 53 54 56 56 56 56 56 56 55 55 55 55 55 55 55 55 54 54 54 54 54 54 54 54 54 54 53 53 53 53 53 53 53 53 53 54 55 55 56
37 37 38 38 39 40 40 41 41 42 42 43 44 46 46 46 47 47 47 48 48 48 49 49 50 50 51 51 51 51 52 52 53 54 56 56 56 56 55 55 55 55 55 55 54 54 55 55 54 54 54 54 54 54 54 54 54 54 54 53 53 53 53 53 53 54 54 54 55
38 37 37 38 39 39 40 40 41 41 42 42 44 45 46 47 47 47 47 47 47 48 48 49 49 50 50 50 50 51 51 51 51 52 53 55 56 56 55 55 55 55 55 55 54 54 55 55 55 54 54 54 54 54 54 54 54 54 54 54 54 54 54 54 54 54 54 55 55
40 38 38 38 38 39 39 40 40 41 41 42 43 44 46 47 47 47 47 47 47 47 48 48 49 49 49 50 50 50 50 51 51 51 51 52 54 55 55 55 55 55 55 55 55 55 55 55 55 55 54 54 54 54 54 54 54 54 54 54 54 54 54 54 54 54 54 55 54
41 40 39 38 38 38 39 39 40 40 41 41 42 44 46 47 47 47 47 47 47 47 47 48 48 49 49 49 49 49 50 50 51 51 51 51 52 53 55 56 56 55 55 55 55 55 55 56 55 55 54 54 55 54 54 54 54 54 54 54 54 54 54 54 54 54 54 54 53
41 41 40 40 39 39 38 39 39 40 40 41 42 43 45 47 47 47 47 47 47 47 47 48 48 48 48 48 49 49 49 50 50 50 51 51 51 51 52 54 55 55 55 55 55 55 55 55 55 55 54 54 55 55 54 54 54 54 54 55 55 54 54 54 55 54 54 53 53
41 41 41 40 40 39 39 38 39 39 40 41 41 42 44 46 46 46 46 47 47 47 47 47 48 48 48 48 48 49 49 49 50 50 50 50 51 51 51 52 54 55 55 54 55 55 55 55 55 55 55 54 54 55 55 54 54 54 54 55 54 54 54 54 54 54 54 54 53
41 41 41 40 40 40 39 39 39 39 40 40 40 41 42 45 45 45 46 46 46 47 47 47 47 47 47 47 48 48 48 49 49 50 50 50 50 51 51 52 53 54 54 54 55 55 55 55 55 55 55 54 54 55 55 55 54 54 54 54 54 54 54 54 54 54 54 53 53
40 40 40 40 40 40 40 39 39 39 39 40 40 40 41 43 44 45 45 46 46 47 47 47 47 47 46 47 47 48 48 48 49 49 50 50 50 50 51 52 53 53 53 53 54 55 55 55 55 55 55 54 54 55 55 55 55 54 54 54 54 54 54 54 54 54 53 53 53
40 40 40 40 40 40 40 39 39 39 39 39 39 40 40 42 43 45 46 46 46 46 46 46 46 46 47 47 47 47 48 48 48 49 49 50 50 50 51 51 52 52 52 53 53 54 54 55 55 55 55 54 54 55 55 55 55 55 55 54 54 54 54 54 54 54 54 54 54
39 39 39 39 39 39 40 40 39 39 39 39 39 40 40 41 42 44 45 45 46 46 46 46 46 47 47 47 47 47 48 48 48 48 49 49 50 50 51 51 52 52 52 53 53 53 54 54 54 54 54 54 54 55 55 55 55 55 55 54 54 54 54 54 54 54 54 54 55
38 38 38 39 39 39 39 39 39 39 39 39 39 39 40 41 42 43 44 45 46 46 46 46 47 47 47 47 47 47 48 48 48 48 48 49 49 49 50 50 51 51 52 52 53 53 53 53 54 54 54 54 54 55 55 55 55 55 54 54 54 54 54 54 54 54 54 54 55
38 38 38 38 38 38 38 38 39 39 39 39 39 39 40 41 42 44 45 45 45 45 45 46 46 46 46 46 47 47 47 47 48 48 48 48 48 49 49 50 50 51 51 52 52 53 53 53 53 53 53 53 55 55 55 55 55 55 54 54 54 54 54 54 54 54 54 55 55
37 37 37 37 38 38 38 38 38 38 38 38 38 39 40 41 42 43 44 45 45 45 45 45 46 46 46 46 46 46 47 47 48 48 47 48 48 48 48 49 50 50 51 52 52 52 53 53 53 53 53 53 54 55 55 55 55 55 54 54 54 54 54 54 54 54 54 54 55
36 36 36 36 37 37 37 37 37 37 37 37 38 38 39 40 41 43 44 45 44 44 44 45 45 45 46 46 46 46 47 47 47 47 47 47 47 47 47 48 49 50 51 51 51 52 52 52 53 53 53 53 54 55 55 55 55 54 54 54 54 54 54 54 54 54 54 54 53
35 35 35 36 36 36 37 37 37 37 37 37 37 38 39 40 41 43 44 45 44 44 44 44 45 45 46 46 46 46 46 46 46 46 46 46 46 46 47 48 48 49 50 50 50 51 51 52 52 52 52 53 54 54 55 55 54 54 54 54 54 54 54 54 54 54 53 53 52
35 35 35 35 35 36 36 36 36 36 37 37 37 38 38 40 42 43 44 45 45 45 44 44 45 45 46 46 46 46 45 45 45 45 45 45 45 46 47 47 48 48 49 49 50 50 51 51 52 52 52 52 53 54 54 54 54 54 54 54 54 54 53 53 54 54 53 53 52
34 34 34 35 35 35 35 35 36 36 37 37 37 38 39 40 41 42 44 44 44 44 44 44 45 45 46 46 45 45 45 45 44 44 45 44 45 45 46 46 47 47 47 48 49 50 50 51 51 52 52 52 53 53 54 54 53 53 53 54 54 54 53 53 53 53 53 53 53
MSLP
999.29 998.93 998.65 998.53 998.49 998.49 998.49 998.49 998.49 998.41 998.41 998.41 998.41 998.37 998.37 998.37 998.21 998.17 998.09 998.05 997.97 997.93 997.93 997.85 997.85 997.85 997.93 997.93 997.97 997.97 998.05 998.09 998.29 998.37 998.49 998.65 998.85 998.97 999.09 999.29 999.49 999.61 999.73 999.85 1000.05 1000.17 1000.37 1000.49 1000.65 1000.81 1000.93 1001.05 1001.17 1001.41 1001.65 1001.77 1001.97 1002.17 1002.41 1002.53 1002.81 1002.97 1003.17 1003.37 1003.65 1003.85 1004.05 1004.17 1004.21
999.61 999.21 998.85 998.61 998.49 998.41 998.49 998.49 998.41 998.41 998.37 998.37 998.37 998.37 998.37 998.29 998.17 998.05 997.97 997.93 997.77 997.73 997.73 997.73 997.73 997.77 997.85 997.85 997.93 997.97 998.05 998.17 998.37 998.49 998.61 998.81 998.93 999.05 999.21 999.37 999.53 999.65 999.77 999.93 1000.09 1000.21 1000.37 1000.53 1000.65 1000.81 1000.93 1001.09 1001.29 1001.49 1001.65 1001.85 1001.97 1002.17 1002.37 1002.61 1002.73 1002.93 1003.17 1003.37 1003.53 1003.73 1003.97 1004.09 1004.21
999.97 999.53 999.09 998.81 998.53 998.41 998.41 998.41 998.37 998.29 998.29 998.29 998.21 998.17 998.17 998.09 998.05 997.97 997.85 997.77 997.73 997.65 997.65 997.65 997.65 997.77 997.85 997.93 997.97 998.09 998.21 998.37 998.49 998.61 998.73 998.93 998.97 999.09 999.29 999.41 999.53 999.73 999.85 999.97 1000.17 1000.29 1000.41 1000.53 1000.73 1000.85 1000.97 1001.21 1001.37 1001.53 1001.73 1001.85 1002.05 1002.17 1002.37 1002.53 1002.65 1002.85 1003.09 1003.29 1003.49 1003.77 1003.97 1004.09 1004.21
1000.37 999.93 999.53 999.21 998.81 998.41 998.21 998.09 998.09 998.09 998.09 998.09 998.05 998.05 998.05 998.05 997.97 997.97 997.93 997.77 997.73 997.65 997.61 997.65 997.65 997.77 997.93 997.97 998.09 998.21 998.37 998.49 998.53 998.61 998.73 998.93 999.05 999.21 999.37 999.41 999.61 999.77 999.93 1000.09 1000.21 1000.37 1000.49 1000.61 1000.81 1000.93 1001.05 1001.21 1001.37 1001.53 1001.77 1001.97 1002.09 1002.21 1002.41 1002.53 1002.65 1002.81 1003.05 1003.29 1003.49 1003.73 1003.97 1004.17 1004.29
1000.85 1000.49 1000.09 999.73 999.37 999.05 998.65 998.37 998.21 998.17 998.09 998.09 998.05 998.05 998.09 998.09 998.05 998.05 997.97 997.85 997.85 997.77 997.65 997.65 997.73 997.85 997.97 998.17 998.29 998.41 998.49 998.53 998.61 998.65 998.81 999.05 999.17 999.29 999.41 999.61 999.73 999.85 999.97 1000.17 1000.29 1000.49 1000.61 1000.81 1000.93 1001.05 1001.17 1001.37 1001.49 1001.65 1001.77 1001.97 1002.17 1002.37 1002.49 1002.65 1002.73 1002.85 1002.97 1003.21 1003.49 1003.73 1003.93 1004.09 1004.29
1001.41 1000.97 1000.61 1000.29 999.93 999.53 999.21 998.97 998.65 998.41 998.29 998.29 998.21 998.21 998.21 998.21 998.17 998.17 998.17 998.17 998.05 997.97 997.85 997.73 997.73 997.85 998.05 998.29 998.49 998.61 998.65 998.73 998.73 998.85 998.97 999.17 999.29 999.41 999.53 999.73 999.77 999.93 1000.05 1000.21 1000.37 1000.49 1000.65 1000.85 1000.97 1001.17 1001.29 1001.49 1001.65 1001.77 1001.85 1002.09 1002.29 1002.41 1002.53 1002.73 1002.81 1002.85 1002.97 1003.21 1003.41 1003.65 1003.93 1004.09 1004.37
1001.77 1001.41 1001.05 1000.73 1000.41 1000.05 999.73 999.49 999.17 998.85 998.65 998.53 998.49 998.41 998.41 998.41 998.37 998.37 998.37 998.37 998.29 998.21 998.09 997.97 997.93 997.97 998.17 998.41 998.61 998.73 998.81 998.93 998.93 999.05 999.09 999.21 999.37 999.49 999.61 999.77 999.85 999.97 1000.09 1000.29 1000.41 1000.61 1000.73 1000.93 1001.05 1001.21 1001.37 1001.53 1001.65 1001.85 1002.05 1002.21 1002.37 1002.49 1002.61 1002.81 1002.85 1002.97 1003.09 1003.29 1003.49 1003.65 1003.93 1004.17 1004.41
1002.09 1001.73 1001.49 1001.17 1000.85 1000.53 1000.21 999.93 999.65 999.37 999.09 998.93 998.81 998.73 998.65 998.61 998.53 998.53 998.53 998.49 998.41 998.37 998.37 998.29 998.17 998.17 998.29 998.49 998.65 998.81 998.93 999.05 999.09 999.21 999.29 999.37 999.49 999.61 999.73 999.85 999.93 1000.05 1000.21 1000.37 1000.49 1000.65 1000.81 1000.93 1001.09 1001.29 1001.41 1001.53 1001.73 1001.97 1002.09 1002.21 1002.41 1002.53 1002.73 1002.85 1002.93 1003.05 1003.17 1003.29 1003.49 1003.73 1003.93 1004.21 1004.53
1002.41 1002.09 1001.77 1001.41 1001.21 1000.93 1000.65 1000.37 1000.09 999.85 999.61 999.41 999.17 998.97 998.93 998.85 998.81 998.81 998.81 998.73 998.65 998.61 998.53 998.49 998.41 998.41 998.49 998.61 998.81 998.93 999.05 999.17 999.21 999.37 999.49 999.53 999.65 999.77 999.85 999.97 1000.05 1000.17 1000.37 1000.49 1000.61 1000.73 1000.85 1001.05 1001.17 1001.29 1001.41 1001.61 1001.73 1001.97 1002.09 1002.29 1002.49 1002.65 1002.81 1002.93 1003.05 1003.21 1003.37 1003.49 1003.65 1003.85 1004.05 1004.37 1004.61
1002.97 1002.61 1002.21 1001.93 1001.61 1001.37 1001.05 1000.73 1000.49 1000.29 1000.09 999.85 999.61 999.37 999.17 999.05 998.97 998.97 998.97 998.93 998.85 998.85 998.81 998.65 998.65 998.73 998.81 998.85 998.97 999.09 999.21 999.29 999.41 999.49 999.61 999.73 999.85 999.97 1000.05 1000.09 1000.17 1000.37 1000.41 1000.53 1000.65 1000.81 1000.93 1001.09 1001.29 1001.41 1001.49 1001.61 1001.73 1001.93 1002.09 1002.29 1002.41 1002.65 1002.93 1003.09 1003.21 1003.41 1003.61 1003.73 1003.85 1004.05 1004.21 1004.49 1004.73
1003.61 1003.21 1002.85 1002.49 1002.17 1001.85 1001.49 1001.09 1000.93 1000.73 1000.53 1000.37 1000.09 999.85 999.61 999.41 999.29 999.21 999.17 999.09 999.09 999.05 999.05 999.05 998.97 998.97 999.05 999.09 999.21 999.29 999.41 999.49 999.61 999.65 999.77 999.93 1000.05 1000.17 1000.29 1000.29 1000.41 1000.49 1000.53 1000.65 1000.81 1000.93 1001.05 1001.17 1001.29 1001.41 1001.53 1001.65 1001.77 1001.97 1002.09 1002.21 1002.41 1002.73 1002.97 1003.21 1003.41 1003.61 1003.77 1003.93 1004.09 1004.29 1004.41 1004.53 1004.73
1004.17 1003.73 1003.37 1002.97 1002.65 1002.29 1001.93 1001.65 1001.37 1001.09 1000.93 1000.73 1000.61 1000.37 1000.09 999.85 999.65 999.53 999.41 999.37 999.37 999.37 999.37 999.29 999.29 999.21 999.29 999.37 999.49 999.61 999.65 999.73 999.77 999.93 999.97 1000.05 1000.21 1000.37 1000.49 1000.61 1000.61 1000.65 1000.73 1000.81 1000.85 1000.97 1001.09 1001.21 1001.37 1001.49 1001.61 1001.73 1001.85 1001.97 1002.09 1002.21 1002.41 1002.65 1002.93 1003.17 1003.49 1003.65 1003.85 1004.05 1004.21 1004.37 1004.49 1004.61 1004.73
1004.53 1004.17 1003.73 1003.41 1003.05 1002.65 1002.37 1002.17 1001.93 1001.61 1001.41 1001.21 1001.05 1000.81 1000.61 1000.37 1000.09 999.85 999.65 999.61 999.61 999.53 999.49 999.53 999.49 999.49 999.53 999.61 999.65 999.73 999.85 999.97 1000.05 1000.09 1000.17 1000.29 1000.41 1000.53 1000.65 1000.85 1000.85 1000.93 1000.97 1000.97 1000.97 1001.05 1001.17 1001.29 1001.41 1001.53 1001.65 1001.77 1001.85 1001.97 1002.09 1002.21 1002.29 1002.49 1002.73 1003.09 1003.41 1003.73 1003.93 1004.09 1004.21 1004.41 1004.53 1004.65 1004.65
1004.85 1004.49 1004.17 1003.85 1003.49 1003.17 1002.85 1002.61 1002.37 1002.17 1001.93 1001.65 1001.41 1001.21 1000.97 1000.81 1000.53 1000.29 1000.05 999.93 999.77 999.73 999.73 999.73 999.73 999.73 999.77 999.85 999.85 999.93 999.97 1000.09 1000.17 1000.21 1000.37 1000.49 1000.61 1000.73 1000.85 1000.97 1001.05 1001.09 1001.09 1001.17 1001.17 1001.21 1001.29 1001.37 1001.41 1001.53 1001.65 1001.77 1001.93 1002.05 1002.17 1002.21 1002.29 1002.37 1002.61 1002.97 1003.29 1003.61 1003.85 1004.09 1004.29 1004.41 1004.53 1004.61 1004.73
1005.09 1004.85 1004.53 1004.17 1003.93 1003.61 1003.37 1003.09 1002.85 1002.65 1002.41 1002.17 1001.93 1001.65 1001.41 1001.17 1000.97 1000.73 1000.49 1000.21 1000.05 999.93 999.93 999.85 999.93 999.93 999.97 1000.05 1000.09 1000.09 1000.17 1000.29 1000.29 1000.41 1000.53 1000.61 1000.73 1000.85 1000.97 1001.09 1001.21 1001.29 1001.29 1001.37 1001.37 1001.41 1001.41 1001.49 1001.53 1001.61 1001.73 1001.85 1001.97 1002.09 1002.21 1002.29 1002.37 1002.41 1002.53 1002.85 1003.29 1003.61 1003.85 1004.05 1004.21 1004.37 1004.41 1004.49 1004.61
1005.49 1005.17 1004.85 1004.61 1004.29 1004.05 1003.77 1003.61 1003.37 1003.09 1002.85 1002.65 1002.41 1002.09 1001.85 1001.61 1001.37 1001.09 1000.85 1000.65 1000.41 1000.17 1000.09 1000.05 1000.05 1000.09 1000.17 1000.21 1000.29 1000.29 1000.37 1000.41 1000.49 1000.53 1000.61 1000.73 1000.85 1000.97 1001.09 1001.17 1001.29 1001.41 1001.41 1001.53 1001.61 1001.65 1001.65 1001.65 1001.73 1001.77 1001.85 1001.93 1002.05 1002.17 1002.29 1002.37 1002.37 1002.49 1002.65 1002.93 1003.29 1003.61 1003.77 1003.97 1004.09 1004.21 1004.29 1004.37 1004.49
1005.93 1005.61 1005.29 1004.97 1004.73 1004.49 1004.29 1004.09 1003.85 1003.61 1003.37 1003.17 1002.81 1002.61 1002.37 1002.05 1001.77 1001.61 1001.41 1001.21 1000.93 1000.61 1000.41 1000.29 1000.21 1000.29 1000.37 1000.41 1000.41 1000.49 1000.49 1000.61 1000.65 1000.65 1000.73 1000.85 1000.93 1001.05 1001.17 1001.21 1001.37 1001.41 1001.53 1001.61 1001.65 1001.73 1001.85 1001.93 1001.97 1002.05 1002.05 1002.09 1002.17 1002.29 1002.37 1002.41 1002.41 1002.53 1002.81 1003.09 1003.37 1003.53 1003.73 1003.85 1003.97 1004.09 1004.21 1004.29 1004.49
1006.41 1006.09 1005.77 1005.41 1005.17 1004.97 1004.81 1004.53 1004.29 1004.09 1003.77 1003.53 1003.29 1003.05 1002.81 1002.53 1002.29 1002.05 1001.85 1001.65 1001.41 1001.17 1000.93 1000.65 1000.53 1000.49 1000.49 1000.53 1000.53 1000.61 1000.65 1000.73 1000.81 1000.81 1000.85 1000.93 1001.05 1001.09 1001.17 1001.29 1001.37 1001.49 1001.53 1001.65 1001.65 1001.77 1001.93 1001.97 1002.09 1002.17 1002.21 1002.29 1002.29 1002.41 1002.41 1002.41 1002.49 1002.65 1002.93 1003.17 1003.41 1003.53 1003.65 1003.77 1003.93 1004.05 1004.17 1004.37 1004.53
1006.81 1006.53 1006.21 1005.97 1005.65 1005.49 1005.17 1004.93 1004.73 1004.49 1004.21 1004.05 1003.77 1003.49 1003.21 1002.97 1002.73 1002.49 1002.21 1002.05 1001.85 1001.61 1001.41 1001.17 1000.93 1000.81 1000.73 1000.73 1000.73 1000.73 1000.81 1000.85 1000.85 1000.93 1000.97 1001.05 1001.09 1001.09 1001.21 1001.37 1001.37 1001.41 1001.53 1001.65 1001.73 1001.77 1001.93 1002.05 1002.09 1002.21 1002.29 1002.37 1002.41 1002.41 1002.49 1002.53 1002.65 1002.85 1003.05 1003.29 1003.49 1003.61 1003.73 1003.93 1004.05 1004.09 1004.29 1004.49 1004.61
1007.17 1006.97 1006.73 1006.53 1006.21 1005.93 1005.61 1005.37 1005.09 1004.85 1004.65 1004.41 1004.09 1003.85 1003.61 1003.37 1003.09 1002.93 1002.65 1002.49 1002.21 1002.05 1001.77 1001.53 1001.41 1001.21 1001.09 1000.97 1000.93 1000.93 1000.97 1000.97 1001.05 1001.09 1001.09 1001.17 1001.21 1001.21 1001.29 1001.37 1001.41 1001.49 1001.53 1001.65 1001.73 1001.77 1001.85 1001.97 1002.09 1002.21 1002.29 1002.37 1002.41 1002.49 1002.53 1002.65 1002.85 1003.05 1003.21 1003.41 1003.53 1003.73 1003.93 1004.05 1004.21 1004.29 1004.41 1004.53 1004.65
1007.49 1007.29 1007.09 1006.93 1006.61 1006.37 1006.05 1005.73 1005.49 1005.21 1004.93 1004.65 1004.41 1004.21 1003.97 1003.73 1003.53 1003.37 1003.17 1002.93 1002.65 1002.41 1002.17 1001.97 1001.85 1001.73 1001.53 1001.41 1001.21 1001.17 1001.09 1001.17 1001.17 1001.21 1001.21 1001.29 1001.37 1001.37 1001.41 1001.41 1001.49 1001.53 1001.53 1001.65 1001.73 1001.77 1001.93 1001.97 1002.09 1002.21 1002.29 1002.37 1002.49 1002.61 1002.73 1002.93 1003.09 1003.21 1003.41 1003.53 1003.73 1003.85 1004.05 1004.21 1004.37 1004.49 1004.53 1004.61 1004.65
1007.73 1007.61 1007.41 1007.21 1006.97 1006.65 1006.37 1006.05 1005.77 1005.49 1005.21 1004.93 1004.73 1004.53 1004.37 1004.17 1003.97 1003.73 1003.53 1003.29 1002.97 1002.73 1002.53 1002.37 1002.21 1002.09 1001.97 1001.85 1001.65 1001.49 1001.37 1001.29 1001.29 1001.29 1001.29 1001.37 1001.41 1001.49 1001.49 1001.53 1001.61 1001.65 1001.65 1001.65 1001.85 1001.93 1001.97 1002.09 1002.17 1002.29 1002.37 1002.49 1002.61 1002.81 1002.97 1003.09 1003.21 1003.41 1003.53 1003.65 1003.85 1003.97 1004.17 1004.29 1004.41 1004.49 1004.49 1004.49 1004.53
1007.93 1007.73 1007.53 1007.37 1007.09 1006.85 1006.61 1006.37 1006.05 1005.73 1005.49 1005.21 1005.05 1004.81 1004.61 1004.49 1004.29 1004.09 1003.85 1003.61 1003.37 1003.09 1002.93 1002.73 1002.61 1002.49 1002.37 1002.17 1002.05 1001.85 1001.61 1001.49 1001.41 1001.41 1001.41 1001.41 1001.49 1001.53 1001.61 1001.65 1001.65 1001.73 1001.73 1001.73 1001.93 1001.97 1002.09 1002.17 1002.29 1002.37 1002.49 1002.61 1002.73 1002.93 1003.05 1003.17 1003.29 1003.49 1003.61 1003.73 1003.93 1004.05 1004.17 1004.29 1004.37 1004.37 1004.37 1004.29 1004.29
1008.09 1007.93 1007.65 1007.49 1007.21 1007.05 1006.85 1006.61 1006.29 1006.05 1005.77 1005.53 1005.37 1005.09 1004.85 1004.73 1004.53 1004.37 1004.17 1003.97 1003.73 1003.49 1003.29 1003.09 1002.93 1002.81 1002.61 1002.49 1002.37 1002.17 1001.97 1001.77 1001.61 1001.53 1001.53 1001.53 1001.53 1001.61 1001.65 1001.73 1001.77 1001.77 1001.77 1001.85 1001.93 1001.97 1002.09 1002.21 1002.37 1002.41 1002.53 1002.73 1002.81 1002.93 1003.05 1003.17 1003.37 1003.49 1003.65 1003.77 1003.93 1003.97 1004.05 1004.09 1004.17 1004.17 1004.17 1004.17 1004.17
1008.17 1007.97 1007.77 1007.61 1007.41 1007.21 1006.97 1006.73 1006.53 1006.37 1006.17 1005.97 1005.65 1005.41 1005.17 1004.93 1004.81 1004.61 1004.41 1004.21 1003.97 1003.77 1003.61 1003.41 1003.21 1003.05 1002.85 1002.73 1002.53 1002.37 1002.21 1002.17 1001.97 1001.85 1001.73 1001.65 1001.65 1001.65 1001.73 1001.77 1001.85 1001.93 1001.93 1001.93 1002.05 1002.09 1002.17 1002.29 1002.37 1002.49 1002.53 1002.65 1002.73 1002.85 1002.97 1003.09 1003.21 1003.37 1003.49 1003.61 1003.73 1003.77 1003.77 1003.85 1003.93 1003.97 1004.05 1004.09 1004.17
1008.21 1008.09 1007.97 1007.77 1007.61 1007.37 1007.17 1006.97 1006.81 1006.61 1006.41 1006.21 1005.97 1005.65 1005.49 1005.21 1005.05 1004.85 1004.61 1004.41 1004.29 1004.09 1003.85 1003.65 1003.41 1003.21 1003.09 1002.97 1002.81 1002.61 1002.49 1002.41 1002.37 1002.21 1002.09 1001.93 1001.77 1001.77 1001.77 1001.77 1001.93 1001.97 1002.05 1002.05 1002.09 1002.17 1002.29 1002.29 1002.37 1002.49 1002.53 1002.65 1002.65 1002.81 1002.85 1002.97 1003.05 1003.17 1003.29 1003.37 1003.49 1003.53 1003.61 1003.65 1003.73 1003.77 1003.77 1003.85 1003.97
1008.21 1008.17 1008.05 1007.93 1007.65 1007.53 1007.37 1007.17 1006.97 1006.81 1006.61 1006.41 1006.21 1005.97 1005.73 1005.53 1005.29 1005.09 1004.85 1004.65 1004.49 1004.29 1004.09 1003.93 1003.73 1003.61 1003.41 1003.21 1003.05 1002.93 1002.73 1002.61 1002.53 1002.41 1002.37 1002.21 1002.09 1001.97 1001.93 1001.93 1001.93 1001.93 1001.97 1002.05 1002.09 1002.21 1002.29 1002.37 1002.37 1002.49 1002.53 1002.61 1002.61 1002.65 1002.73 1002.81 1002.85 1002.97 1003.05 1003.17 1003.21 1003.37 1003.41 1003.49 1003.53 1003.53 1003.61 1003.73 1003.77
1008.37 1008.21 1008.09 1007.93 1007.77 1007.65 1007.53 1007.29 1007.09 1006.97 1006.85 1006.65 1006.53 1006.29 1006.05 1005.77 1005.61 1005.37 1005.09 1004.93 1004.73 1004.49 1004.29 1004.09 1003.97 1003.77 1003.65 1003.49 1003.29 1003.17 1003.05 1002.85 1002.73 1002.61 1002.53 1002.41 1002.37 1002.21 1002.09 1001.97 1001.93 1001.97 1001.97 1001.97 1002.05 1002.17 1002.21 1002.29 1002.29 1002.41 1002.49 1002.53 1002.53 1002.53 1002.61 1002.61 1002.65 1002.81 1002.85 1002.97 1003.05 1003.09 1003.17 1003.21 1003.29 1003.41 1003.49 1003.61 1003.65
1008.49 1008.29 1008.17 1008.05 1007.85 1007.77 1007.65 1007.53 1007.37 1007.21 1007.05 1006.93 1006.73 1006.53 1006.29 1006.05 1005.85 1005.61 1005.41 1005.21 1004.97 1004.73 1004.61 1004.41 1004.17 1004.05 1003.93 1003.73 1003.53 1003.41 1003.29 1003.17 1002.97 1002.85 1002.73 1002.61 1002.41 1002.37 1002.29 1002.21 1002.05 1001.97 1001.97 1001.97 1001.97 1002.05 1002.09 1002.17 1002.21 1002.29 1002.37 1002.37 1002.37 1002.41 1002.41 1002.49 1002.53 1002.61 1002.65 1002.81 1002.81 1002.93 1002.97 1003.09 1003.09 1003.21 1003.37 1003.49 1003.61
1008.61 1008.41 1008.29 1008.17 1007.97 1007.85 1007.73 1007.65 1007.53 1007.41 1007.21 1007.09 1006.93 1006.73 1006.49 1006.21 1006.05 1005.93 1005.65 1005.49 1005.29 1005.09 1004.93 1004.73 1004.53 1004.37 1004.17 1003.97 1003.77 1003.61 1003.49 1003.37 1003.17 1003.09 1002.97 1002.85 1002.65 1002.53 1002.41 1002.29 1002.17 1002.05 1001.93 1001.93 1001.85 1001.93 1001.97 1002.05 1002.05 1002.17 1002.21 1002.21 1002.21 1002.17 1002.21 1002.29 1002.37 1002.49 1002.53 1002.61 1002.61 1002.65 1002.81 1002.93 1002.97 1003.09 1003.21 1003.41 1003.53
1008.73 1008.53 1008.37 1008.21 1008.09 1007.97 1007.85 1007.77 1007.65 1007.53 1007.41 1007.21 1007.05 1006.85 1006.65 1006.49 1006.29 1006.09 1005.97 1005.73 1005.53 1005.37 1005.17 1004.93 1004.73 1004.53 1004.37 1004.17 1003.97 1003.77 1003.65 1003.49 1003.37 1003.21 1003.09 1003.05 1002.93 1002.73 1002.61 1002.41 1002.21 1002.17 1002.05 1001.97 1001.85 1001.77 1001.77 1001.77 1001.85 1001.93 1001.97 1001.97 1002.05 1002.05 1002.09 1002.09 1002.17 1002.21 1002.37 1002.37 1002.49 1002.61 1002.73 1002.81 1002.93 1002.97 1003.09 1003.29 1003.49
1008.81 1008.65 1008.49 1008.37 1008.21 1008.09 1007.97 1007.93 1007.77 1007.61 1007.49 1007.37 1007.21 1007.05 1006.85 1006.65 1006.49 1006.29 1006.17 1005.97 1005.77 1005.53 1005.29 1005.05 1004.85 1004.65 1004.49 1004.29 1004.09 1003.93 1003.77 1003.65 1003.53 1003.37 1003.21 1003.17 1002.97 1002.93 1002.81 1002.61 1002.41 1002.29 1002.17 1002.09 1001.97 1001.85 1001.73 1001.65 1001.61 1001.65 1001.77 1001.85 1001.93 1001.93 1001.97 1001.97 1002.05 1002.09 1002.17 1002.21 1002.37 1002.49 1002.61 1002.65 1002.85 1002.93 1003.05 1003.17 1003.37
1008.93 1008.73 1008.61 1008.49 1008.37 1008.17 1008.05 1007.97 1007.85 1007.65 1007.53 1007.41 1007.21 1007.09 1006.97 1006.81 1006.61 1006.41 1006.29 1006.17 1005.93 1005.73 1005.49 1005.29 1005.09 1004.93 1004.65 1004.49 1004.29 1004.17 1003.97 1003.77 1003.65 1003.49 1003.37 1003.21 1003.05 1002.97 1002.85 1002.73 1002.53 1002.41 1002.29 1002.17 1002.09 1001.97 1001.85 1001.73 1001.61 1001.53 1001.61 1001.65 1001.73 1001.77 1001.85 1001.85 1001.93 1001.97 1002.09 1002.09 1002.17 1002.21 1002.37 1002.49 1002.65 1002.73 1002.85 1002.97 1003.09
1009.05 1008.85 1008.73 1008.61 1008.41 1008.21 1008.09 1007.97 1007.85 1007.73 1007.61 1007.49 1007.29 1007.21 1007.09 1006.93 1006.73 1006.53 1006.37 1006.21 1006.09 1005.93 1005.73 1005.53 1005.29 1005.17 1004.97 1004.81 1004.61 1004.37 1004.17 1003.97 1003.77 1003.61 1003.49 1003.37 1003.17 1002.97 1002.85 1002.73 1002.61 1002.49 1002.37 1002.21 1002.09 1001.97 1001.93 1001.85 1001.73 1001.61 1001.53 1001.53 1001.61 1001.65 1001.65 1001.73 1001.77 1001.85 1001.93 1001.97 1002.09 1002.17 1002.21 1002.37 1002.49 1002.61 1002.73 1002.85 1002.93
1009.21 1009.05 1008.85 1008.73 1008.53 1008.37 1008.21 1008.05 1007.93 1007.77 1007.65 1007.53 1007.41 1007.29 1007.17 1007.05 1006.85 1006.65 1006.49 1006.29 1006.17 1006.05 1005.85 1005.65 1005.49 1005.29 1005.09 1004.97 1004.81 1004.61 1004.37 1004.17 1003.97 1003.77 1003.61 1003.41 1003.29 1003.09 1002.93 1002.81 1002.61 1002.53 1002.41 1002.29 1002.09 1001.97 1001.85 1001.85 1001.77 1001.73 1001.65 1001.61 1001.53 1001.53 1001.53 1001.61 1001.65 1001.73 1001.77 1001.85 1001.97 1002.05 1002.09 1002.21 1002.37 1002.41 1002.53 1002.65 1002.73
1009.41 1009.21 1009.05 1008.85 1008.65 1008.49 1008.29 1008.17 1008.05 1007.85 1007.73 1007.61 1007.53 1007.41 1007.21 1007.09 1006.93 1006.73 1006.61 1006.49 1006.29 1006.09 1005.93 1005.73 1005.53 1005.37 1005.17 1004.97 1004.85 1004.73 1004.53 1004.37 1004.17 1003.97 1003.77 1003.65 1003.49 1003.29 1003.05 1002.85 1002.73 1002.53 1002.41 1002.29 1002.17 1002.09 1001.93 1001.85 1001.73 1001.65 1001.65 1001.65 1001.53 1001.49 1001.49 1001.49 1001.53 1001.53 1001.61 1001.73 1001.77 1001.85 1001.97 1002.09 1002.21 1002.29 1002.37 1002.49 1002.61
1009.53 1009.41 1009.21 1009.05 1008.81 1008.61 1008.49 1008.29 1008.17 1007.97 1007.85 1007.77 1007.65 1007.53 1007.41 1007.21 1007.05 1006.85 1006.65 1006.49 1006.37 1006.17 1005.97 1005.77 1005.53 1005.41 1005.21 1005.05 1004.97 1004.85 1004.73 1004.53 1004.41 1004.21 1004.05 1003.93 1003.73 1003.49 1003.29 1003.05 1002.81 1002.65 1002.53 1002.41 1002.29 1002.17 1002.05 1001.85 1001.73 1001.65 1001.61 1001.61 1001.53 1001.49 1001.41 1001.41 1001.41 1001.41 1001.49 1001.53 1001.65 1001.77 1001.85 1001.97 1002.09 1002.17 1002.29 1002.37 1002.41
1009.65 1009.49 1009.37 1009.17 1008.97 1008.81 1008.61 1008.49 1008.29 1008.17 1008.05 1007.93 1007.77 1007.65 1007.53 1007.37 1007.09 1006.93 1006.81 1006.61 1006.49 1006.21 1006.05 1005.85 1005.65 1005.53 1005.41 1005.21 1005.09 1004.97 1004.81 1004.65 1004.53 1004.41 1004.21 1004.09 1003.93 1003.73 1003.49 1003.21 1002.97 1002.81 1002.65 1002.53 1002.41 1002.29 1002.09 1001.97 1001.85 1001.73 1001.61 1001.53 1001.49 1001.41 1001.37 1001.37 1001.37 1001.37 1001.41 1001.49 1001.53 1001.65 1001.77 1001.93 1002.05 1002.09 1002.21 1002.21 1002.37
1009.77 1009.61 1009.49 1009.37 1009.17 1008.93 1008.81 1008.61 1008.53 1008.37 1008.21 1008.05 1007.85 1007.73 1007.61 1007.41 1007.21 1007.05 1006.93 1006.73 1006.61 1006.41 1006.17 1005.97 1005.77 1005.65 1005.53 1005.37 1005.21 1005.05 1004.85 1004.81 1004.65 1004.53 1004.41 1004.21 1004.09 1003.93 1003.65 1003.41 1003.17 1002.97 1002.85 1002.73 1002.61 1002.41 1002.29 1002.09 1001.93 1001.77 1001.61 1001.49 1001.41 1001.37 1001.29 1001.21 1001.21 1001.21 1001.29 1001.37 1001.41 1001.61 1001.73 1001.85 1001.93 1002.05 1002.09 1002.17 1002.21
1009.85 1009.65 1009.53 1009.41 1009.21 1009.05 1008.93 1008.81 1008.65 1008.53 1008.37 1008.21 1007.97 1007.85 1007.73 1007.61 1007.41 1007.17 1006.97 1006.81 1006.65 1006.49 1006.37 1006.09 1005.97 1005.77 1005.61 1005.41 1005.21 1005.05 1004.93 1004.85 1004.73 1004.61 1004.53 1004.41 1004.21 1004.05 1003.77 1003.61 1003.41 1003.21 1003.05 1002.85 1002.73 1002.61 1002.41 1002.29 1002.09 1001.93 1001.73 1001.53 1001.37 1001.29 1001.21 1001.21 1001.17 1001.17 1001.17 1001.21 1001.37 1001.49 1001.61 1001.73 1001.85 1001.93 1002.05 1002.09 1002.17
1009.93 1009.73 1009.53 1009.41 1009.29 1009.17 1008.97 1008.85 1008.73 1008.61 1008.41 1008.29 1008.09 1007.97 1007.85 1007.65 1007.49 1007.29 1007.09 1006.93 1006.73 1006.61 1006.41 1006.29 1006.05 1005.85 1005.65 1005.49 1005.29 1005.17 1004.97 1004.85 1004.73 1004.65 1004.61 1004.49 1004.29 1004.09 1003.97 1003.77 1003.61 1003.41 1003.17 1002.97 1002.85 1002.65 1002.53 1002.37 1002.17 1002.05 1001.93 1001.73 1001.49 1001.29 1001.17 1001.21 1001.17 1001.17 1001.09 1001.09 1001.17 1001.37 1001.49 1001.65 1001.77 1001.85 1001.93 1002.05 1002.17
Wind_Speed
16 13 7 2 4 4 4 3 4 4 3 3 4 4 3 3 4 4 5 4 4 4 4 4 4 4 4 4 4 4 5 6 8 9 9 10 10 10 10 10 10 9 9 9 9 9 8 8 7 6 5 6 7 7 7 6 8 8 9 8 8 9 10 10 9 8 8 7 6
18 17 13 7 2 3 4 4 4 4 4 4 4 5 5 5 5 5 5 5 5 4 4 3 3 3 3 3 4 5 6 7 9 10 10 11 11 11 11 10 10 10 10 10 9 8 7 7 6 6 5 5 5 6 6 6 7 8 9 10 8 8 8 9 9 8 7 6 5
19 18 16 14 8 2 4 5 5 6 6 6 5 5 5 5 4 4 3 3 2 2 2 2 3 3 4 4 4 5 6 7 9 10 10 11 11 11 11 10 11 10 10 10 9 8 7 7 6 6 5 5 5 5 5 5 5 6 8 9 7 7 7 7 8 7 6 5 4
19 18 17 17 17 11 5 1 1 2 3 3 2 2 1 1 0 0 0 1 1 2 2 3 4 4 4 5 5 5 6 7 8 9 10 10 11 11 11 11 11 11 10 10 9 8 8 7 6 5 5 6 6 6 5 4 5 5 5 6 6 6 7 7 7 6 5 5 4
19 18 18 17 20 18 14 10 9 7 5 3 3 3 3 2 2 2 2 2 2 3 4 5 5 5 6 6 6 6 6 7 8 8 9 10 10 11 11 11 11 11 10 10 9 9 8 8 5 5 5 5 5 5 5 5 6 5 4 3 4 5 6 7 6 6 5 5 4
18 18 18 18 19 17 15 13 12 10 8 6 6 5 4 3 3 3 3 3 3 4 5 7 7 7 7 7 7 6 6 6 7 8 8 9 9 10 10 11 11 10 10 10 9 9 9 7 5 4 4 5 4 5 5 6 6 5 4 4 4 4 5 6 6 5 5 5 5
18 19 19 19 19 18 16 16 14 12 10 8 8 8 7 5 5 5 5 4 4 4 4 5 6 8 8 8 7 6 6 6 6 7 8 8 9 9 10 10 10 10 10 10 10 9 8 7 5 5 5 5 5 5 6 6 5 5 5 4 4 4 5 6 5 5 6 7 7
18 19 19 19 18 18 18 18 16 14 12 9 9 9 8 7 7 6 5 5 4 4 3 4 6 8 8 8 7 7 6 6 6 6 7 7 8 9 9 9 9 9 9 9 9 9 8 6 5 5 5 5 5 5 6 7 6 5 5 5 4 3 4 4 5 5 6 8 9
19 19 19 19 19 19 18 18 18 17 15 14 13 11 9 8 8 7 6 5 4 4 4 5 7 8 9 9 8 7 7 6 6 6 6 7 7 8 8 8 9 9 8 8 9 9 8 6 5 5 5 5 5 6 7 8 7 6 5 4 3 3 3 3 4 5 6 8 9
20 20 19 18 19 19 18 18 17 17 18 17 17 14 11 9 8 7 6 4 5 5 5 6 7 8 9 8 8 7 6 6 6 6 6 6 7 7 7 7 8 9 8 8 8 8 8 6 6 5 5 6 7 8 8 8 8 7 5 3 3 4 4 3 5 6 7 7 8
20 20 19 18 19 19 18 17 16 16 17 17 17 16 14 11 9 7 6 5 6 6 6 6 7 8 8 8 7 7 6 5 5 6 6 6 6 6 6 6 8 8 8 8 7 7 7 6 7 7 7 7 8 9 9 9 9 8 6 4 4 5 5 5 5 5 6 6 7
19 19 19 18 19 18 17 16 14 15 16 17 17 16 14 12 11 8 6 6 6 6 6 6 7 7 7 6 7 7 6 6 6 6 6 6 6 6 5 5 6 7 7 7 7 6 6 7 8 8 9 8 7 8 9 10 10 9 8 7 6 6 6 6 6 5 5 5 6
18 18 19 19 19 18 17 16 14 14 15 17 16 15 14 14 13 11 8 6 6 5 5 5 6 6 6 5 6 6 6 6 6 6 6 6 6 6 6 5 5 5 5 5 6 6 6 8 9 10 10 9 8 8 9 11 11 11 10 9 8 7 7 7 6 5 5 5 5
18 18 19 19 19 18 17 16 14 13 15 16 15 14 13 13 14 13 10 7 5 5 5 5 5 5 5 5 5 5 6 6 6 6 6 6 6 6 5 5 4 4 4 3 4 5 6 8 9 10 10 10 9 9 9 10 10 11 11 10 9 8 8 7 6 6 6 5 5
18 18 19 19 19 17 16 16 13 13 14 15 15 14 13 12 13 13 13 11 7 5 4 4 4 5 5 6 5 5 5 5 6 6 6 5 5 5 5 4 4 3 3 3 3 4 5 7 8 9 10 10 10 10 9 9 9 9 10 10 10 9 8 7 7 7 6 6 6
18 18 19 19 19 18 16 15 12 12 13 14 14 14 13 12 12 13 14 14 10 7 5 4 4 5 5 5 5 5 5 5 5 5 5 5 5 5 5 5 4 4 3 3 3 3 4 5 6 7 8 9 9 9 9 8 8 8 8 8 8 8 8 8 7 7 7 6 6
18 18 18 18 19 18 17 16 14 13 14 15 15 14 13 12 12 13 14 15 13 11 9 6 4 4 4 5 5 4 4 4 4 4 4 4 5 5 5 5 4 4 4 4 4 4 4 4 4 4 5 6 7 8 8 8 7 7 7 7 7 7 7 7 7 7 7 7 8
17 17 17 18 18 18 18 17 16 15 15 15 15 14 13 13 13 13 13 14 14 14 13 11 7 4 4 4 4 4 3 3 3 3 4 4 5 5 5 5 4 4 4 4 4 4 5 4 4 4 4 5 5 6 6 6 6 6 6 6 6 6 6 6 6 6 7 8 10
15 16 16 17 17 17 17 17 17 16 15 15 14 14 14 15 15 14 14 14 14 15 15 14 12 8 6 4 3 3 3 3 3 4 4 4 4 5 5 5 5 4 4 5 5 5 5 5 5 5 5 4 5 5 5 5 5 5 5 5 4 4 4 5 6 7 8 10 11
14 14 15 15 15 16 16 16 16 16 15 14 15 15 15 16 15 15 15 15 14 14 14 14 14 13 11 7 4 2 2 3 3 4 4 4 4 5 5 5 5 5 5 5 5 5 6 6 6 5 5 5 5 5 5 4 4 4 4 4 4 4 4 5 7 8 10 11 12
13 13 13 13 14 14 14 14 14 15 15 14 15 15 15 15 15 15 15 14 14 14 14 14 14 14 14 12 9 5 2 2 3 3 4 4 4 4 5 5 5 5 5 5 6 6 6 6 6 6 6 6 5 5 5 4 4 4 4 3 4 4 5 5 7 9 10 11 11
11 11 11 12 12 12 13 13 13 14 14 15 15 14 14 14 14 14 14 14 14 14 14 13 13 13 14 14 12 9 5 1 2 3 3 4 4 4 4 4 5 5 5 5 6 6 6 6 6 6 6 6 6 6 6 6 5 5 4 4 5 5 6 6 7 8 9 9 9
9 9 10 10 11 12 12 12 13 14 15 15 15 14 14 14 14 14 14 13 13 14 13 12 12 12 12 12 13 12 10 6 2 2 3 4 4 4 4 4 5 5 5 5 6 6 7 7 7 7 7 7 7 7 7 7 6 6 5 6 6 7 7 7 7 7 7 7 7
9 9 9 9 11 11 12 12 13 14 14 15 15 14 14 13 13 13 13 14 13 13 13 11 11 11 12 12 12 12 12 11 7 3 1 3 4 4 4 4 4 5 5 5 5 6 7 7 7 7 7 7 8 8 8 8 8 7 7 8 8 8 7 7 7 7 7 6 5
9 9 9 9 11 11 12 12 13 13 13 14 14 14 14 13 13 13 13 13 13 13 12 12 11 11 11 11 11 11 12 12 11 8 4 1 3 4 4 4 4 4 4 4 6 7 8 7 6 6 7 7 8 8 8 9 9 9 9 9 9 8 8 8 8 8 8 7 7
9 9 9 9 10 11 12 12 12 12 12 13 14 14 14 13 13 13 13 13 13 13 12 11 11 11 10 10 11 11 11 10 11 11 9 6 1 2 4 4 4 4 4 4 6 8 8 8 7 7 6 6 7 7 8 8 9 9 9 9 9 9 9 9 9 9 9 9 8
9 9 9 9 10 11 11 11 11 12 12 13 13 14 14 13 13 13 13 13 13 12 11 11 10 10 10 9 11 12 11 10 10 10 11 10 7 3 1 3 3 3 4 5 7 8 9 9 8 8 7 6 6 7 7 7 8 9 9 9 9 9 9 9 9 9 9 8 8
11 10 9 9 10 10 11 11 11 12 12 12 12 13 13 14 14 14 14 14 13 12 11 10 10 9 8 8 10 11 11 11 10 10 10 10 10 9 6 2 2 3 4 6 7 8 9 9 9 9 8 7 6 6 7 7 8 8 8 8 8 9 9 9 9 9 8 8 7
11 11 10 10 10 10 10 11 11 11 11 11 11 12 12 14 14 14 15 15 14 13 11 10 9 8 8 9 9 10 10 10 9 9 9 10 10 10 9 8 5 3 4 7 8 9 9 10 10 10 9 8 6 6 6 7 7 7 7 7 8 8 8 8 8 8 7 7 7
11 11 11 11 11 10 10 10 10 10 10 10 11 11 12 13 14 14 14 15 14 12 11 9 9 9 10 10 10 9 9 9 9 9 9 10 10 10 9 9 8 5 4 7 9 10 11 11 11 10 10 9 7 6 5 6 6 7 7 7 7 8 8 8 8 8 7 7 7
11 11 11 11 11 10 10 9 9 9 9 10 10 11 12 13 13 13 13 13 12 11 11 10 11 11 11 11 10 10 10 9 9 9 9 9 9 9 9 9 9 8 6 5 7 10 12 12 12 12 11 11 8 6 5 6 6 6 7 7 7 8 8 7 8 8 8 8 8
11 11 11 11 11 10 10 9 9 9 9 10 11 11 11 12 12 12 11 11 11 11 12 12 12 12 12 11 11 11 11 10 10 10 10 9 9 9 9 8 8 8 9 10 8 7 10 12 13 13 13 12 9 7 6 6 6 7 7 7 8 8 8 7 7 8 9 9 9
11 11 11 11 11 11 10 9 9 9 9 10 10 11 11 11 11 11 11 11 11 11 11 12 12 12 12 12 12 11 11 11 11 11 11 11 10 9 9 7 7 7 9 12 12 10 8 9 11 13 14 14 10 8 7 7 6 6 7 7 8 9 9 9 8 8 9 10 9
11 11 11 11 11 11 10 10 10 9 10 10 10 11 11 10 11 11 11 11 10 10 10 10 10 10 10 10 11 11 11 11 11 11 12 12 11 11 10 8 6 7 10 12 12 12 10 8 8 10 13 14 11 9 8 8 7 7 8 8 9 9 9 10 9 9 9 10 10
11 11 11 11 11 11 10 10 10 10 10 11 11 11 11 11 11 11 11 11 10 10 9 9 9 9 9 10 10 10 11 11 11 11 12 12 12 12 12 10 9 9 11 12 12 12 12 10 8 7 9 11 9 9 8 9 9 9 9 10 10 10 10 10 9 9 9 10 10
10 10 10 11 10 11 11 11 11 11 11 12 11 11 11 11 10 10 10 10 10 10 10 9 9 9 10 10 10 10 11 12 12 12 12 12 13 13 12 12 11 11 12 13 13 14 13 13 11 8 6 7 7 7 8 8 8 9 10 10 10 10 10 10 10 9 9 9 9
9 9 9 10 10 10 10 10 11 11 12 12 11 11 11 11 10 9 9 10 10 10 10 10 10 10 11 11 10 10 10 11 12 12 12 13 13 13 13 12 12 11 12 13 15 15 15 15 14 11 7 4 5 6 7 7 7 8 9 10 10 10 10 9 9 9 9 9 9
8 8 8 9 9 9 10 10 11 11 11 11 10 9 9 10 9 9 10 10 10 10 10 10 10 10 10 11 10 10 10 10 11 12 13 13 12 12 12 12 12 11 12 14 16 17 17 17 16 14 9 4 4 5 5 6 6 7 8 8 8 9 9 8 7 7 8 9 10
7 7 7 8 8 9 9 9 10 10 10 10 9 9 9 9 9 9 9 9 9 9 9 9 10 10 10 10 10 10 10 10 11 12 12 12 11 12 12 12 12 12 12 14 16 17 18 18 18 16 12 6 4 4 4 5 6 7 7 7 7 8 8 7 6 6 7 8 10
7 7 7 7 7 8 8 9 9 9 9 9 9 9 9 9 9 9 9 8 9 9 9 9 10 10 10 10 9 10 10 10 10 11 12 11 11 11 11 11 11 12 12 14 16 17 18 18 18 17 14 8 5 3 3 4 5 6 7 7 7 7 7 6 6 5 6 7 9
6 6 6 7 7 7 7 8 8 8 8 8 8 8 8 8 8 9 9 8 8 8 8 8 10 10 10 9 9 9 11 11 10 11 11 11 11 10 10 10 10 11 12 13 15 17 18 18 18 18 16 11 7 4 3 3 4 5 6 7 7 7 6 6 5 5 6 6 7
Wind_Direction
358 355 346 273 222 214 216 218 223 228 235 241 246 249 250 250 252 252 250 244 240 236 232 228 225 224 221 212 195 178 164 155 154 152 149 145 144 144 144 145 145 144 143 143 143 145 147 150 149 149 151 154 153 155 157 160 160 162 164 167 165 163 163 164 166 168 170 172 166
357 356 355 348 271 220 219 225 228 231 234 239 243 245 245 245 246 246 245 241 236 229 222 214 204 193 179 167 154 148 145 147 150 151 150 148 147 147 147 147 148 147 145 145 144 144 145 147 147 149 150 151 150 151 154 158 159 161 163 165 163 162 163 165 167 167 168 169 161
357 357 358 360 359 326 214 215 218 221 224 227 230 232 233 234 237 237 235 227 210 194 178 165 153 141 133 126 126 131 139 145 149 150 150 150 149 149 150 150 150 149 148 147 146 145 144 145 146 147 148 147 146 146 146 147 153 159 162 164 161 160 162 165 164 164 164 168 161
359 359 359 360 1 2 5 27 129 173 184 190 184 179 172 166 154 137 119 114 119 123 124 122 115 111 108 108 115 124 134 141 144 146 147 148 150 151 152 152 152 151 151 149 147 144 143 144 144 144 145 145 143 143 142 140 145 152 158 160 157 158 161 163 161 160 161 164 162
360 1 1 1 1 2 6 13 25 36 50 63 71 73 70 62 55 50 49 54 69 88 102 107 106 103 100 99 107 116 126 133 137 140 144 145 148 150 152 154 154 154 153 151 147 145 143 144 142 142 142 144 144 142 139 137 140 144 147 147 150 154 157 158 156 156 157 157 158
360 1 2 2 2 3 4 5 11 19 28 38 44 51 55 56 53 50 48 47 57 74 89 100 103 102 100 98 101 107 114 122 129 134 138 141 145 148 150 153 154 155 154 151 147 145 143 144 141 139 139 138 134 132 131 134 137 139 140 139 143 147 150 152 151 150 150 151 158
1 2 3 3 3 4 5 5 7 11 17 28 34 39 43 46 50 53 54 54 55 64 77 91 101 104 105 105 103 103 104 109 116 125 131 136 141 144 147 149 151 152 152 150 147 145 144 142 139 138 138 135 130 129 130 133 137 139 141 141 141 142 143 146 144 145 149 157 167
1 2 2 2 3 4 6 8 9 10 12 16 23 31 37 42 45 48 51 52 53 57 67 81 95 101 105 108 107 105 105 107 110 116 122 128 133 138 141 142 145 148 149 148 146 146 145 140 137 136 136 136 133 133 133 133 134 136 138 137 133 131 131 135 139 146 155 165 175
2 2 1 2 3 4 5 8 11 12 11 11 13 19 28 38 41 44 46 48 51 58 68 79 87 92 96 99 101 103 106 109 110 112 116 120 126 131 136 139 141 143 145 145 145 146 146 141 137 134 135 137 139 138 136 133 130 129 129 126 122 119 120 127 142 152 160 169 179
3 2 2 2 2 2 4 7 10 12 12 11 9 11 16 28 36 41 43 45 50 56 64 73 80 84 86 88 90 93 97 102 107 111 113 116 120 125 131 138 141 142 143 144 146 147 148 145 140 137 136 137 139 138 136 132 129 128 127 123 125 128 133 140 152 159 164 170 178
3 3 3 3 2 2 4 6 8 10 11 11 9 7 8 14 25 34 40 45 50 53 57 63 71 77 80 82 83 84 87 92 99 105 110 112 114 118 125 132 139 142 143 145 147 148 148 146 144 142 140 139 140 140 139 137 135 135 135 134 137 141 146 152 158 163 166 167 169
2 3 4 4 3 4 5 5 6 7 9 9 8 7 5 6 11 19 33 46 51 53 55 57 65 71 77 81 83 83 84 87 92 98 103 106 108 110 113 120 129 135 140 142 145 146 146 147 146 145 144 144 146 147 147 146 144 143 142 143 144 148 152 155 159 162 162 158 156
3 4 5 5 5 6 6 6 5 5 6 6 6 5 5 4 4 7 17 40 49 53 55 56 62 69 76 82 86 87 87 88 91 93 97 101 104 106 107 108 114 121 128 134 137 139 142 145 147 149 149 151 153 155 155 153 151 149 147 147 150 154 158 159 159 158 155 151 153
5 6 6 6 7 7 8 6 5 4 3 3 3 3 4 4 4 3 6 18 36 50 57 59 63 69 76 83 86 90 92 93 93 94 95 98 103 105 106 105 105 105 108 113 122 131 139 146 151 153 154 154 156 158 159 158 155 151 149 150 156 160 164 164 163 161 160 160 163
6 6 6 7 8 8 8 7 5 3 1 1 0 1 2 3 4 4 5 5 13 29 49 59 67 74 80 84 86 88 91 94 96 98 99 100 103 105 107 106 100 93 88 87 102 122 136 146 152 154 155 155 156 158 159 159 155 151 150 153 159 164 168 170 170 171 170 169 170
6 6 6 7 8 8 8 7 4 2 0 359 359 360 1 2 3 5 7 5 4 8 23 46 63 77 86 90 90 90 91 93 97 101 104 106 107 108 108 107 102 95 88 81 89 105 124 140 146 149 150 152 154 156 157 157 151 148 149 154 162 168 172 174 176 176 177 174 177
6 5 5 6 7 7 7 6 4 2 1 359 359 360 1 1 2 5 7 8 5 4 7 20 40 68 89 99 100 100 98 98 101 106 110 113 114 114 113 112 109 105 100 94 95 102 111 122 126 132 138 144 149 151 152 149 144 144 148 156 165 172 177 178 179 181 182 184 188
7 5 4 5 5 5 5 5 4 3 1 0 360 0 1 2 3 4 6 8 8 8 8 10 16 34 68 96 105 109 111 112 115 117 119 121 121 120 118 117 115 112 110 107 108 109 111 113 111 112 117 127 136 140 141 139 137 140 147 159 169 177 181 184 187 189 191 194 197
7 6 5 4 3 2 3 4 4 3 1 0 0 1 2 3 3 4 5 6 7 9 11 12 11 14 24 54 86 105 115 122 126 128 129 129 128 127 125 123 121 119 118 118 117 116 115 115 112 111 111 114 120 125 127 129 133 141 151 163 173 182 190 196 199 201 201 201 201
8 6 4 2 1 0 0 1 2 2 1 0 1 2 3 4 4 5 5 4 5 8 12 15 14 13 12 15 30 64 104 121 129 133 135 136 136 136 134 131 128 126 125 125 124 123 122 121 121 121 120 119 119 122 125 130 140 151 161 170 179 191 201 208 210 209 207 205 202
7 5 3 1 0 359 359 359 360 1 1 2 2 3 4 4 5 4 3 1 3 7 12 15 15 14 12 10 9 13 42 118 132 137 140 142 143 143 141 136 134 132 130 130 130 130 130 131 134 134 134 133 134 137 141 147 157 166 175 183 192 201 209 214 214 212 209 206 201
3 2 1 1 0 359 359 358 359 1 2 3 2 3 4 5 5 3 2 1 4 7 10 12 13 13 12 11 7 5 5 32 136 143 143 144 146 146 144 140 139 137 136 134 135 136 139 143 147 149 149 149 152 155 159 164 170 178 187 197 204 209 213 217 218 216 212 207 201
360 359 359 0 1 1 1 0 2 3 4 3 2 2 3 4 4 3 3 3 6 8 8 9 8 9 9 10 9 7 5 5 26 138 148 146 146 147 147 146 146 146 146 143 142 144 149 155 160 162 162 162 164 167 170 174 177 184 194 206 213 215 216 217 221 223 221 215 206
358 358 359 0 1 2 3 4 5 6 5 3 1 1 1 2 3 3 4 5 7 7 7 6 5 5 6 8 10 11 10 9 8 13 144 155 150 150 151 153 157 159 160 158 157 158 161 164 167 170 171 172 172 174 176 179 181 187 195 206 214 217 218 216 218 222 226 227 219
360 359 0 2 3 3 5 7 8 7 6 3 1 0 1 1 2 3 4 5 6 6 5 5 4 4 5 6 7 10 13 13 10 5 0 175 161 159 158 162 167 171 173 173 173 173 173 173 174 175 176 178 179 180 182 184 186 190 195 201 208 212 215 215 214 215 217 219 218
3 3 3 3 4 6 7 7 7 7 6 4 2 1 1 1 1 2 3 5 4 4 3 4 4 4 4 4 5 7 9 12 11 8 3 355 326 178 173 172 176 180 183 184 184 185 185 183 181 179 180 182 183 184 186 188 191 194 197 200 204 207 210 211 211 210 209 209 208
6 5 4 4 8 8 8 6 6 6 7 6 4 2 1 2 2 2 3 3 2 2 2 4 4 3 3 4 5 5 5 5 6 8 7 3 356 341 228 194 190 190 189 186 189 192 192 191 187 185 184 187 188 189 189 190 193 195 198 201 203 205 207 208 208 208 207 206 204
5 4 4 7 10 10 8 7 7 7 7 6 4 1 1 4 5 4 4 2 1 1 3 4 2 1 1 3 4 4 3 1 0 1 3 5 4 358 347 311 239 211 198 189 189 192 195 196 192 189 186 186 189 190 190 189 190 193 197 201 204 206 207 208 207 207 206 205 204
2 3 5 8 9 10 9 9 8 7 5 4 2 1 2 6 7 6 4 3 2 2 1 359 358 358 360 1 1 1 1 1 359 357 357 358 1 0 356 345 323 268 217 200 194 193 194 196 195 192 190 187 188 188 188 187 188 191 195 199 203 205 206 207 207 207 205 204 202
1 2 4 7 9 10 10 9 7 5 4 3 2 2 4 7 8 7 4 2 1 359 356 353 354 357 359 359 359 359 359 359 358 357 356 355 354 353 351 348 342 324 264 218 206 200 196 196 196 196 195 193 190 187 186 185 186 188 192 197 200 202 204 207 206 206 204 203 201
359 1 3 5 8 9 9 7 5 4 4 5 4 5 6 7 8 6 3 359 355 353 352 352 355 356 357 357 358 357 357 356 356 356 356 354 351 347 345 343 346 343 327 279 234 215 204 199 198 198 198 198 195 192 189 187 186 187 190 194 196 198 201 204 204 204 202 200 199
358 360 2 4 5 6 6 5 5 5 6 7 7 6 5 4 4 3 1 357 353 352 352 353 355 356 357 356 356 355 355 355 355 354 353 351 348 345 342 339 345 349 348 339 311 266 230 211 203 200 199 200 199 198 195 191 190 190 192 193 194 195 197 200 201 202 200 199 197
357 359 0 2 2 2 3 4 4 5 7 9 9 7 4 359 360 1 1 359 355 353 353 354 355 356 356 355 353 353 352 353 352 351 349 348 346 345 343 340 341 343 346 348 343 328 294 247 221 209 203 200 202 202 200 196 194 194 195 196 196 196 197 198 200 200 200 199 198
355 357 358 359 359 360 0 2 3 5 7 10 9 8 4 359 358 359 360 358 354 352 352 352 354 354 355 353 351 350 350 350 350 349 349 348 347 345 344 343 339 335 335 339 344 344 337 311 264 232 215 205 205 205 204 201 200 199 198 198 198 197 198 199 201 201 201 201 200
354 355 356 356 357 358 358 360 2 4 6 8 8 6 4 360 357 356 356 355 352 351 350 350 351 353 355 355 353 351 351 350 350 350 350 349 348 346 345 342 338 334 333 334 337 341 343 340 316 273 238 218 213 210 207 203 202 201 199 197 197 197 198 200 203 204 204 203 201
352 353 353 354 355 356 358 359 0 3 5 6 5 3 1 359 355 353 353 353 352 351 349 348 351 354 357 357 355 354 353 351 351 351 351 351 349 346 344 340 337 335 335 337 338 339 340 341 335 316 275 237 226 218 213 208 205 202 199 196 196 196 197 199 203 205 205 204 202
348 350 351 352 354 356 357 358 360 2 3 3 2 0 359 355 351 350 351 354 352 350 348 347 351 354 356 355 354 353 352 351 351 351 351 350 348 345 342 339 337 337 339 341 343 343 342 341 338 332 316 261 239 227 219 213 209 203 199 195 195 195 196 199 203 205 206 205 201
345 347 350 352 353 355 356 358 0 0 359 357 357 356 355 353 350 350 352 353 351 349 346 346 349 351 352 351 351 351 352 352 353 352 351 349 346 343 341 338 339 339 342 345 346 346 345 344 341 337 329 297 259 238 227 218 211 204 198 193 194 196 198 200 203 205 206 205 200
341 344 348 351 352 354 356 359 359 358 355 353 352 352 353 353 351 351 350 350 349 347 345 345 346 347 347 348 348 349 351 352 353 353 351 347 343 341 340 339 339 340 342 344 345 346 346 346 345 342 337 315 285 256 239 226 214 205 197 191 192 195 199 202 203 204 206 206 199
337 342 347 350 352 353 355 357 357 355 353 351 350 351 351 351 348 347 347 347 347 346 345 344 344 344 345 346 348 348 349 350 351 351 349 344 340 339 339 339 340 340 340 341 342 343 344 346 348 348 346 333 311 280 255 239 222 210 200 191 190 192 197 200 201 203 205 206 199
338 343 348 350 351 353 354 354 353 352 351 351 349 348 347 346 344 344 345 346 347 347 345 344 343 344 345 347 348 348 348 348 348 347 346 342 339 338 339 339 339 338 338 338 339 340 342 344 348 352 353 348 333 306 271 250 234 220 209 197 191 190 191 195 199 202 203 203 200